(348387) = 2005 GR78

Discovered at Catalina on 2005-04-06 by CSS.

Orbit

Orbit type: Main Belt

Note: WebGL enabled browser required.

epoch2023-09-13.0
epoch JD2460200.5
perihelion date2022-02-14.85072
perihelion JD2459625.35072
argument of perihelion (°)68.67609
ascending node (°)108.42909
inclination (°)12.55888
eccentricity0.2158635
perihelion distance (AU)2.0633861
Tisserand w.r.t. Jupiter3.3
ΔV w.r.t. Earth (km/sec)9.8
semimajor axis (AU)2.6314118
mean anomaly (°)132.80096
mean daily motion (°/day)0.23089820
aphelion distance (AU)3.199
period (years)4.27
P-vector [x]-0.97757810
P-vector [y]-0.02777236
P-vector [z]0.20873368
Q-vector [x]-0.04224806
Q-vector [y]-0.94524028
Q-vector [z]-0.32362927
absolute magnitude16.55
phase slope0.15
uncertainty0
referenceMPEC 2023-R69
observations used451
oppositions12
arc length (days)6729
first opposition used2005
last opposition used2023
residual rms (arc-secs)0.80
perturbers coarse indicatorM-v
perturbers precise indicator003Ek
first observation date used2005-04-06.0
last observation date used2023-09-08.0
computer nameMPCLINUX
JD of orbit computation2456465.494472
perihelion JD uncertainty (days)1.9893E-04
argument of perihelion uncertainty (°)5.2518E-05
ascending node uncertainty (°)3.5326E-05
inclination uncertainty (°)8.7468E-06
eccentricity uncertainty 1.8028E-07
perihelion distance uncertainty (AU)5.3106E-07
Minimum Orbit Intersection Distances (in AU)
for orbit epoch: 2460200.5, reference: E2023-R69
Mercury1.6701
Venus1.35499
Earth1.1056
Mars0.48661
Jupiter1.9029
Saturn6.26729
Uranus16.3775
Neptune26.7427

Observations

463 total observations over interval: 2005 04 06.33062 – 2023 09 14.328878
These data are available for download (format description).

Date (UT) J2000 RA J2000 Dec Magn Location Ref
2005 04 06.33062 14 39 44.82 +08 31 49.6 18.1 R 703 – Catalina Sky Survey MPS 131840
2005 04 06.33957 14 39 44.42 +08 31 52.6 18.2 R 703 – Catalina Sky Survey MPS 131840
2005 04 06.34854 14 39 44.10 +08 31 54.9 18.3 R 703 – Catalina Sky Survey MPS 131840
2005 04 06.35752 14 39 43.77 +08 32 00.0 18.1 R 703 – Catalina Sky Survey MPS 131840
2005 04 06.43911 14 39 40.48 +08 32 27.7 18.3 R G96 – Mt. Lemmon Survey MPS 131840
2005 04 06.44569 14 39 40.20 +08 32 29.8 18.4 R G96 – Mt. Lemmon Survey MPS 131840
2005 04 06.44634 14 39 40.17 +08 32 30.2 18.3 R G96 – Mt. Lemmon Survey MPS 131840
2005 04 06.45291 14 39 39.93 +08 32 32.5 18.4 R G96 – Mt. Lemmon Survey MPS 131840
2005 04 06.45355 14 39 39.89 +08 32 32.8 18.4 R G96 – Mt. Lemmon Survey MPS 131840
2005 04 06.46016 14 39 39.63 +08 32 35.0 18.4 R G96 – Mt. Lemmon Survey MPS 131840
2005 04 06.46081 14 39 39.59 +08 32 35.2 18.5 R G96 – Mt. Lemmon Survey MPS 131840
2005 04 06.46741 14 39 39.33 +08 32 37.7 18.3 R G96 – Mt. Lemmon Survey MPS 131840
2005 04 08.43259 14 38 22.96 +08 43 57.7 19.1   704 – Lincoln Laboratory ETS, New Mexico MPS 131840
2005 04 08.44476 14 38 22.36 +08 44 01.5 19.9   704 – Lincoln Laboratory ETS, New Mexico MPS 131840
2005 04 08.46408 14 38 21.61 +08 44 07.6 19.9   704 – Lincoln Laboratory ETS, New Mexico MPS 131840
2005 04 12.28109 14 35 38.94 +09 03 52.5 18.8 R 699 – Lowell Observatory-LONEOS MPS 131840
2005 04 12.30055 14 35 38.01 +09 03 57.6   699 – Lowell Observatory-LONEOS MPS 131840
2005 04 12.32001 14 35 37.14 +09 04 03.6   699 – Lowell Observatory-LONEOS MPS 131840
2005 04 12.33950 14 35 36.17 +09 04 09.9   699 – Lowell Observatory-LONEOS MPS 131840
2005 04 21.30884 14 28 18.87 +09 36 19.2 19.6 V 703 – Catalina Sky Survey MPS 132673
2005 04 21.31715 14 28 18.48 +09 36 20.0 18.4 V 703 – Catalina Sky Survey MPS 132673
2005 04 21.32539 14 28 18.01 +09 36 20.5 18.2 V 703 – Catalina Sky Survey MPS 132673
2005 04 21.33362 14 28 17.47 +09 36 22.7 18.6 V 703 – Catalina Sky Survey MPS 132673
2005 05 03.30977 14 17 59.87 +09 42 02.8 18.2 R 703 – Catalina Sky Survey MPS 133371
2005 05 03.31852 14 17 59.34 +09 42 01.7 18.6 R 703 – Catalina Sky Survey MPS 133371
2005 05 03.32726 14 17 58.93 +09 42 01.1 18.3 R 703 – Catalina Sky Survey MPS 133371
2005 05 03.33597 14 17 58.53 +09 42 00.6 18.2 R 703 – Catalina Sky Survey MPS 133371
2005 05 09.27127 14 13 15.96 +09 27 47.3 19.1 V 703 – Catalina Sky Survey MPS 134038
2005 05 09.27766 14 13 15.67 +09 27 45.6 19.3 V 703 – Catalina Sky Survey MPS 134038
2005 05 09.28412 14 13 15.34 +09 27 43.2 19.3 V 703 – Catalina Sky Survey MPS 134038
2005 05 09.29052 14 13 15.02 +09 27 43.0 19.2 V 703 – Catalina Sky Survey MPS 134038
2005 05 12.27989 14 11 05.59 +09 16 20.3 19.0   704 – Lincoln Laboratory ETS, New Mexico MPS 134038
2005 05 12.30384 14 11 04.56 +09 16 13.0 19.8   704 – Lincoln Laboratory ETS, New Mexico MPS 134038
2005 05 12.31396 14 11 04.13 +09 16 09.8 19.4   704 – Lincoln Laboratory ETS, New Mexico MPS 134038
2005 05 30.28362 14 02 25.51 +07 16 01.6 19.9 V 703 – Catalina Sky Survey MPS 135610
2005 05 30.29009 14 02 25.51 +07 15 58.6 19.9 V 703 – Catalina Sky Survey MPS 135610
2005 05 30.29652 14 02 25.33 +07 15 54.1 20.9 V 703 – Catalina Sky Survey MPS 135610
2005 05 30.30292 14 02 25.26 +07 15 50.5 20.1 V 703 – Catalina Sky Survey MPS 135610
2008 11 01.50833 09 40 48.46 +15 47 09.5 20.9 V 691 – Steward Observatory, Kitt Peak-Spacewatch MPS 276509
2008 11 01.52094 09 40 49.68 +15 47 06.2 21.2 V 691 – Steward Observatory, Kitt Peak-Spacewatch MPS 276509
2008 11 01.53356 09 40 50.85 +15 47 04.6 21.2 V 691 – Steward Observatory, Kitt Peak-Spacewatch MPS 276509
2009 01 27.70036 11 04 56.09 +20 05 46.8 19.4 R D29 – Purple Mountain Observatory, XuYi Station MPS 272588
2009 01 27.71641 11 04 55.95 +20 05 58.9 19.5 R D29 – Purple Mountain Observatory, XuYi Station MPS 272588
2009 01 27.73399 11 04 55.78 +20 06 11.8 19.4 R D29 – Purple Mountain Observatory, XuYi Station MPS 272588
2009 01 27.74856 11 04 55.66 +20 06 21.9 19.2 R D29 – Purple Mountain Observatory, XuYi Station MPS 272588
2009 01 28.36446 11 04 51.99 +20 13 50.7 19.5 V 703 – Catalina Sky Survey MPS 272588
2009 01 28.36958 11 04 51.96 +20 13 54.0 19.6 V 703 – Catalina Sky Survey MPS 272588
2009 01 28.37440 11 04 51.92 +20 13 57.6 19.7 V 703 – Catalina Sky Survey MPS 272588
2009 01 28.37928 11 04 51.92 +20 14 00.8 19.4 V 703 – Catalina Sky Survey MPS 272588
2009 01 31.33088 11 04 23.88 +20 50 35.5 19.3   704 – Lincoln Laboratory ETS, New Mexico MPS 272588
2009 01 31.34262 11 04 23.63 +20 50 44.5 19.8   704 – Lincoln Laboratory ETS, New Mexico MPS 272588
2009 01 31.35436 11 04 23.55 +20 50 52.8 19.6   704 – Lincoln Laboratory ETS, New Mexico MPS 272588
2009 01 31.36635 11 04 23.24 +20 51 02.3 19.5   704 – Lincoln Laboratory ETS, New Mexico MPS 272588
2009 02 04.32720 11 03 20.01 +21 41 41.1 19.2 V 703 – Catalina Sky Survey MPS 272588
2009 02 04.33446 11 03 19.80 +21 41 45.5 18.9 V 703 – Catalina Sky Survey MPS 272588
2009 02 04.34170 11 03 19.65 +21 41 52.5 19.0 V 703 – Catalina Sky Survey MPS 272588
2009 02 04.34897 11 03 19.47 +21 41 57.9 18.9 V 703 – Catalina Sky Survey MPS 272588
2009 02 13.41226 10 59 13.52 +23 40 27.3 19.0 V G96 – Mt. Lemmon Survey MPS 276509
2009 02 13.41965 10 59 13.27 +23 40 32.8 18.9 V G96 – Mt. Lemmon Survey MPS 276509
2009 02 13.42699 10 59 12.98 +23 40 39.0 18.8 V G96 – Mt. Lemmon Survey MPS 276509
2009 02 13.43441 10 59 12.69 +23 40 44.4 19.0 V G96 – Mt. Lemmon Survey MPS 276509
2009 02 15.39772 10 58 03.36 +24 06 06.3 19.1 V 703 – Catalina Sky Survey MPS 276509
2009 02 15.40299 10 58 03.07 +24 06 10.1 18.6 V 703 – Catalina Sky Survey MPS 276509
2009 02 15.40823 10 58 02.89 +24 06 14.4 18.8 V 703 – Catalina Sky Survey MPS 276509
2009 02 15.41358 10 58 02.67 +24 06 18.1 18.7 V 703 – Catalina Sky Survey MPS 276509
2009 02 21.29885 10 54 07.48 +25 19 32.2 18.7 V 703 – Catalina Sky Survey MPS 277592
2009 02 21.30492 10 54 07.27 +25 19 36.0 18.8 V 703 – Catalina Sky Survey MPS 277592
2009 02 21.31107 10 54 06.94 +25 19 40.4 18.8 V 703 – Catalina Sky Survey MPS 277592
2009 02 21.31718 10 54 06.73 +25 19 44.8 18.7 V 703 – Catalina Sky Survey MPS 277592
2009 03 03.21689 10 46 37.38 +27 06 17.5 18.8 V 703 – Catalina Sky Survey MPS 278651
2009 03 03.22295 10 46 37.09 +27 06 20.5 18.9 V 703 – Catalina Sky Survey MPS 278651
2009 03 03.22917 10 46 36.84 +27 06 24.9 19.0 V 703 – Catalina Sky Survey MPS 278651
2009 03 03.23530 10 46 36.51 +27 06 28.5 18.6 V 703 – Catalina Sky Survey MPS 278651
2009 04 19.17784 10 32 45.70 +27 52 31.3 19.3 V 703 – Catalina Sky Survey MPS 284345
2009 04 19.18391 10 32 45.88 +27 52 30.1 19.6 V 703 – Catalina Sky Survey MPS 284345
2009 04 19.18994 10 32 45.99 +27 52 26.7 20.0 V 703 – Catalina Sky Survey MPS 284345
2009 04 19.19597 10 32 46.06 +27 52 25.2 19.6 V 703 – Catalina Sky Survey MPS 284345
2010 04 28.572877 20 46 01.69 -17 38 22.1   C51 – WISE MPS 324871
2010 04 28.705182 20 46 08.62 -17 38 20.6   C51 – WISE MPS 324871
2010 04 28.837486 20 46 15.37 -17 38 15.8   C51 – WISE MPS 324871
2010 04 28.969791 20 46 22.20 -17 38 14.0   C51 – WISE MPS 324871
2010 04 29.036006 20 46 25.64 -17 38 12.4   C51 – WISE MPS 324871
2010 04 29.16831 20 46 32.29 -17 38 09.4   C51 – WISE MPS 324871
2010 04 29.565225 20 46 52.72 -17 37 59.7   C51 – WISE MPS 324871
2010 04 29.697529 20 46 59.13 -17 37 58.5   C51 – WISE MPS 324871
2010 04 29.829833 20 47 06.06 -17 37 54.9   C51 – WISE MPS 324871
2010 08 18.336607 20 16 30.644 -26 19 46.70 20.96 i F51 – Pan-STARRS 1, Haleakala MPS 365515
2010 08 18.351438 20 16 29.965 -26 19 50.70 20.77 r F51 – Pan-STARRS 1, Haleakala MPS 365515
2010 08 18.362466 20 16 29.456 -26 19 53.55 21.10 r F51 – Pan-STARRS 1, Haleakala MPS 365515
2011 09 25.46424 01 35 21.952 -09 19 42.76 21.6 w F51 – Pan-STARRS 1, Haleakala MPS 392640
2011 09 25.47691 01 35 21.393 -09 19 47.77 21.5 w F51 – Pan-STARRS 1, Haleakala MPS 392640
2011 09 25.48957 01 35 20.846 -09 19 52.82 21.6 w F51 – Pan-STARRS 1, Haleakala MPS 392640
2011 09 25.50219 01 35 20.291 -09 19 57.90 21.7 w F51 – Pan-STARRS 1, Haleakala MPS 392640
2012 12 16.21174 07 39 15.11 +19 04 18.6 19.8 R J04 – ESA Optical Ground Station, Tenerife MPS 447754
